Terminal Aerodrome Forecast
Issued by NWS Rapid City, SD

Home | Current Version | Previous Version | Graphics & Text | Print | Product List | Glossary On
Versions: 1 2 3 4 5 6 7 8 9 10 11 12 13 14 15 16 17
332
FTUS43 KUNR 130504 AAA
TAFRAP
TAF AMD
KRAP 130504Z 1305/1324 33035G50KT P6SM SCT150
     FM131700 32025G35KT P6SM SCT080=

USA.gov is the U.S. government's official web portal to all federal, state and local government web resources and services.